Location: LDNL
(36.4545°S, 141.6685°E)
Time: 03:32:31
(UTC+11:00)

Vanguard 2 - Pass Details

Date: 12 August 2022
Orbit: 552 x 2934 km, 32.9° (Epoch: 06 October)

Event Time Altitude Azimuth Distance (km) Brightness Sun altitude
Rises 21:26:04 0° 264° (W) 5,929 12.9 -42.2°
Reaches altitude 10° 21:30:36 10° 267° (W) 4,562 12.0 -43.1°
Enters shadow 21:39:16 46° 291° (WNW) 2,000 9.6 -44.8°
Maximum altitude 21:41:58 60° 342° (NNW) 1,561 - -45.3°
Drops below altitude 10° 21:48:39 10° 61° (ENE) 2,761 - -46.6°
Sets 21:50:47 0° 64° (ENE) 3,489 - -47.0°
